142  
ASUS42 KRAH 230510  
RWRRAH  
NORTH CAROLINA WEATHER ROUNDUP  
NATIONAL WEATHER SERVICE RALEIGH NC  
100 AM EDT THU MAY 23 2019  
 
NOTE: "FAIR" INDICATES FEW OR NO CLOUDS BELOW 12,000 FEET WITH NO  
SIGNIFICANT WEATHER AND/OR S TO VISIBILITY
.  
 
NCZ001-053-055-056-065-067-230600-  
WESTERN NORTH CAROLINA  
 
CITY SKY/WX TMP DP RH WIND PRES REMARKS
 
ASHEVILLE CLOUDY 69 64 84 S5 30.29F  
JEFFERSON FOG 60 60 100 CALM 30.33S VSB 1/4  
MORGANTON CLOUDY 69 65 87 CALM 30.31R  
HICKORY CLOUDY 69 65 86 N3 30.26S  
WILKESBORO NOT AVBL  
RUTHERFORDTON CLOUDY 70 66 88 N3 30.27S  
MOUNT AIRY MOCLDY 68 63 83 CALM 30.29S  
BOONE CLOUDY 62 62 100 CALM 30.34F FOG  

 
 
NCZ021-022-025-041-071-084-088-230600-  
CENTRAL NORTH CAROLINA  
 
CITY SKY/WX TMP DP RH WIND PRES REMARKS
 
CHARLOTTE CLOUDY 74 65 73 SE10 30.25S  
GREENSBORO CLOUDY 71 61 70 S6 30.25F  
WINSTON-SALEM CLOUDY 72 61 68 CALM 30.27S  
RALEIGH-DURHAM FAIR 70 58 65 S10 30.26F  
FORT BRAGG FAIR 67 62 84 CALM 30.25F  
FAYETTEVILLE FAIR 67 60 78 CALM 30.26S  
BURLINGTON CLOUDY 71 63 75 CALM 30.25F  
ROXBORO CLOUDY 66 61 82 CALM 30.27F  
HENDERSON FAIR 66 53 61 S3 30.25F  
LOUISBURG FAIR 64 55 72 S5 30.29S  
LAURINBURG FAIR 68 60 75 SE3 30.25F  

 
 
NCZ011-015-027-028-043-044-047-080-103-230600-  
NORTHEASTERN NORTH CAROLINA  
 
CITY SKY/WX TMP DP RH WIND PRES REMARKS
 
ROCKY MT-WILSO FAIR 63 55 75 S3 30.27S  
GREENVILLE FAIR 64 52 63 CALM 30.28S  
WASHINGTON FAIR 62 51 67 CALM 30.27F  
ELIZABETH CITY FAIR 65 53 65 E7 30.28S  
MANTEO FAIR 64 52 65 E6 30.28F  
CAPE HATTERAS FAIR 65 58 78 NE6 30.27F  

 
 
NCZ078-087-090-091-093-098-101-230600-  
SOUTHEASTERN NORTH CAROLINA  
 
CITY SKY/WX TMP DP RH WIND PRES REMARKS
 
GOLDSBORO FAIR 67 54 61 CALM 30.26R  
KINSTON FAIR 64 55 71 CALM 30.27S  
KENANSVILLE FAIR 61 57 88 CALM 30.27S  
NEW BERN FAIR 62 56 80 CALM 30.26F  
CHERRY POINT FAIR 64 52 64 E5 30.26F  
BEAUFORT FAIR 69 57 65 E5 30.25F  
JACKSONVILLE FAIR 70 60 70 SE7 30.24F  
WILMINGTON FAIR 71 64 78 E3 30.24S  

 
 
 
 
CLICK HERE TO GO TO PREVIOUS BULLETINS.

The Nexlab NC Page Main Text Page